TimeCDT,TemperatureF,Dew PointF,Humidity,Sea Level PressureIn,VisibilityMPH,Wind Direction,Wind SpeedMPH,Gust SpeedMPH,PrecipitationIn,Events,Conditions,WindDirDegrees,DateUTC
12:53 AM,79.0,66.9,66,29.83,10.0,South,5.8,-,N/A,,Clear,190,2013-07-23 05:53:00
1:53 AM,78.1,66.9,68,29.86,10.0,Calm,Calm,-,N/A,,Clear,0,2013-07-23 06:53:00
2:53 AM,75.0,66.9,76,29.82,10.0,South,3.5,-,N/A,,Clear,190,2013-07-23 07:53:00
3:53 AM,73.9,66.9,79,29.81,10.0,NNE,5.8,-,N/A,,Clear,20,2013-07-23 08:53:00
4:53 AM,70.0,66.0,87,29.79,10.0,SW,3.5,-,N/A,,Clear,220,2013-07-23 09:53:00
5:53 AM,72.0,68.0,87,29.80,10.0,SW,6.9,-,N/A,,Clear,230,2013-07-23 10:53:00
6:53 AM,73.9,70.0,87,29.81,10.0,WSW,4.6,-,N/A,,Clear,240,2013-07-23 11:53:00
7:53 AM,79.0,71.1,77,29.82,10.0,NNE,6.9,-,N/A,,Clear,20,2013-07-23 12:53:00
8:53 AM,80.1,70.0,71,29.86,10.0,NNE,10.4,-,N/A,,Clear,20,2013-07-23 13:53:00
9:22 AM,80.6,71.6,74,29.91,10.0,NNW,6.9,-,N/A,,Partly Cloudy,330,2013-07-23 14:22:00
9:53 AM,81.0,71.1,72,29.88,10.0,NNW,6.9,-,N/A,,Scattered Clouds,340,2013-07-23 14:53:00
10:03 AM,82.4,71.6,70,29.92,10.0,North,8.1,16.1,N/A,,Mostly Cloudy,360,2013-07-23 15:03:00
10:53 AM,79.0,69.1,72,29.88,10.0,NNE,15.0,-,N/A,,Overcast,30,2013-07-23 15:53:00
11:42 AM,78.8,66.2,65,29.93,10.0,NNE,12.7,-,N/A,,Scattered Clouds,30,2013-07-23 16:42:00
11:53 AM,79.0,66.0,64,29.90,10.0,NE,11.5,-,N/A,,Clear,40,2013-07-23 16:53:00
12:53 PM,81.0,66.0,60,29.89,10.0,ENE,6.9,-,N/A,,Clear,60,2013-07-23 17:53:00
1:53 PM,81.0,66.0,60,29.88,10.0,ENE,10.4,-,N/A,,Clear,60,2013-07-23 18:53:00
2:53 PM,86.0,66.0,51,29.88,10.0,NE,11.5,-,N/A,,Clear,40,2013-07-23 19:53:00
3:53 PM,86.0,66.0,51,29.88,10.0,NNE,11.5,-,N/A,,Clear,30,2013-07-23 20:53:00
4:53 PM,86.0,66.9,53,29.86,10.0,NNE,8.1,-,N/A,,Clear,30,2013-07-23 21:53:00
5:53 PM,84.9,66.9,55,29.83,10.0,ENE,9.2,-,N/A,,Clear,60,2013-07-23 22:53:00
6:53 PM,82.9,64.0,53,29.85,10.0,NE,10.4,-,N/A,,Clear,50,2013-07-23 23:53:00
7:53 PM,82.0,64.9,56,29.87,10.0,NE,8.1,-,N/A,,Clear,50,2013-07-24 00:53:00
8:53 PM,79.0,66.0,64,29.88,10.0,ENE,13.8,20.7,N/A,,Clear,70,2013-07-24 01:53:00
9:53 PM,77.0,64.9,66,29.89,10.0,ENE,10.4,-,N/A,,Clear,60,2013-07-24 02:53:00
10:53 PM,73.9,63.0,68,29.93,10.0,NE,11.5,-,N/A,,Clear,50,2013-07-24 03:53:00
11:53 PM,72.0,60.1,66,29.92,10.0,NE,11.5,-,N/A,,Clear,40,2013-07-24 04:53:00